Location: LewisvilleTX
(33.0462°N, 96.9942°W)
Time: 12:09:55
(UTC+00:00)

MANDRAKE 2 BAKER - Visible Passes

Search period start: 29 May 2022 00:00
Search period end: 08 June 2022 00:00
Orbit: 517 x 532 km, 97.6° (Epoch: 28 May)

Date Brightness Start Highest point End Pass type
(mag) Time Alt. Az. Time Alt. Az. Time Alt. Az.
29 May ? 08:09:14 24° N 08:09:14 24° N 08:10:52 10° N visible
30 May ? 07:56:54 23° NNE 07:56:54 23° NNE 07:58:35 10° N visible
31 May ? 07:44:34 21° NNE 07:44:34 21° NNE 07:46:12 10° NNE visible
01 Jun ? 07:32:14 17° NE 07:32:14 17° NE 07:33:40 10° NNE visible
01 Jun ? 09:07:25 11° NW 09:07:25 11° NW 09:07:38 10° NW visible
02 Jun ? 07:19:54 13° NE 07:19:54 13° NE 07:20:53 10° NNE visible
02 Jun ? 08:55:04 15° NW 08:55:04 15° NW 08:55:55 10° NW visible
03 Jun ? 08:42:45 19° NW 08:42:45 19° NW 08:44:00 10° NNW visible
04 Jun ? 08:30:23 23° NNW 08:30:23 23° NNW 08:31:58 10° NNW visible
05 Jun ? 08:18:02 26° N 08:18:02 26° N 08:19:49 10° N visible
06 Jun ? 08:05:41 27° N 08:05:41 27° N 08:07:34 10° N visible
07 Jun ? 07:53:19 25° NNE 07:53:19 25° NNE 07:55:13 10° N visible
